Fort Rucker / Ozark, AL

5:44 AM CDT on May 30, 2017 (GMT -0500)
Fort Rucker / Ozark

Weather History for KHEY - April, 2014

Change the Weather History Date:

Thursday, April 17, 2014

  Actual Average (KOZR) Record (KOZR)
Temperature  
Mean Temperature 58 °F -  
Max Temperature 69 °F 74 °F 87 °F (2006)
Min Temperature 48 °F 51 °F 39 °F (2008)
Degree Days  
Heating Degree Days 6    
Growing Degree Days 8 (Base 50)    
Moisture  
Dew Point 49 °F    
Average Humidity 69    
Maximum Humidity 80    
Minimum Humidity 54    
Precipitation  
Precipitation 0.00 in - - ()
Sea Level Pressure  
Sea Level Pressure 30.18 in    
Wind  
Wind Speed 10 mph (ENE)    
Max Wind Speed 16 mph    
Max Gust Speed 28 mph    
Visibility 10 miles    
Events Rain    
Averages and records for this station are not official NWS values.
T = Trace of Precipitation, MM = Missing Value Source: NWS Daily Summary

Daily Weather History Graph

Daily Weather History Graph

Search for Another Location

Airport or City:

Trip Planner

Search our weather history database for the weather conditions in past years. The results will help you decide how hot, cold, wet, or windy it might be!

Date:

Astronomy

Apr. 17, 2014 Rise Set
Actual Time 6:12 AM CDT 7:12 PM CDT
Civil Twilight 5:47 AM CDT 7:37 PM CDT
Nautical Twilight 5:17 AM CDT 8:07 PM CDT
Astronomical Twilight 4:47 AM CDT 8:37 PM CDT
Moon 9:49 PM CDT (4/17) 7:50 AM CDT (4/17)
Length of Visible Light 13h 50m
Length of Day
13h 00m
Waning Gibbous, 93% of the Moon is Illuminated
Apr 17
Waning Gibbous
Apr 22
Last Quarter
Apr 29
New
May 6
First Quarter
May 14
Full

Hourly Weather History & Observations

Time (CDT) Temp. Dew Point Humidity Pressure Visibility Wind Dir Wind Speed Gust Speed Precip Events Conditions
12:53 AM 48.9 °F 42.1 °F 77% 30.19 in 10.0 mi East 6.9 mph - N/A   Clear
1:53 AM 50.0 °F 43.0 °F 77% 30.19 in 10.0 mi East 6.9 mph - N/A   Partly Cloudy
2:53 AM 48.9 °F 43.0 °F 80% 30.19 in 10.0 mi ENE 5.8 mph - N/A   Clear
3:53 AM 48.9 °F 43.0 °F 80% 30.19 in 10.0 mi ENE 6.9 mph - N/A   Mostly Cloudy
4:53 AM 48.9 °F 42.1 °F 77% 30.20 in 10.0 mi ENE 6.9 mph - N/A   Partly Cloudy
5:53 AM 48.9 °F 41.0 °F 74% 30.21 in 10.0 mi ENE 8.1 mph - N/A   Mostly Cloudy
6:53 AM 50.0 °F 41.0 °F 71% 30.23 in 10.0 mi ENE 10.4 mph - N/A   Mostly Cloudy
7:53 AM 52.0 °F 43.0 °F 71% 30.24 in 10.0 mi ENE 15.0 mph - N/A   Mostly Cloudy
8:53 AM 55.0 °F 45.0 °F 69% 30.25 in 10.0 mi East 16.1 mph 20.7 mph N/A   Overcast
9:44 AM 57.9 °F 46.9 °F 67% 30.31 in 10.0 mi East 9.2 mph - N/A   Overcast
9:53 AM 59.0 °F 48.0 °F 67% 30.28 in 10.0 mi East 12.7 mph 23.0 mph N/A   Overcast
10:19 AM 59.0 °F 48.0 °F 67% 30.32 in 10.0 mi East 13.8 mph - N/A   Overcast
10:53 AM 62.1 °F 48.9 °F 62% 30.28 in 10.0 mi ENE 13.8 mph 19.6 mph N/A   Overcast
12:53 PM 66.9 °F 52.0 °F 59% 30.22 in 10.0 mi ESE 13.8 mph 27.6 mph N/A   Partly Cloudy
1:53 PM 68.0 °F 53.1 °F 59% 30.20 in 10.0 mi East 11.5 mph 23.0 mph N/A   Clear
2:53 PM 69.1 °F 52.0 °F 54% 30.19 in 10.0 mi ENE 15.0 mph 20.7 mph N/A   Scattered Clouds
3:53 PM 68.0 °F 53.1 °F 59% 30.17 in 10.0 mi ENE 12.7 mph - N/A   Mostly Cloudy
4:53 PM 66.9 °F 53.1 °F 61% 30.17 in 10.0 mi East 12.7 mph - N/A   Mostly Cloudy
5:53 PM 66.0 °F 53.1 °F 63% 30.17 in 10.0 mi ENE 11.5 mph - N/A   Overcast
6:53 PM 64.9 °F 53.1 °F 65% 30.17 in 10.0 mi ENE 11.5 mph - N/A   Overcast
7:53 PM 64.0 °F 53.1 °F 67% 30.17 in 10.0 mi East 11.5 mph - N/A   Overcast
8:53 PM 63.0 °F 53.1 °F 70% 30.16 in 10.0 mi East 8.1 mph - N/A   Overcast
9:53 PM 63.0 °F 54.0 °F 72% 29.88 in 10.0 mi East 8.1 mph - 0.00 in Rain Light Rain
10:17 PM 62.1 °F 55.0 °F 78% 30.22 in 10.0 mi ENE 6.9 mph - 0.00 in Rain Light Rain
10:53 PM 62.1 °F 55.0 °F 78% 29.88 in 10.0 mi ENE 10.4 mph - 0.00 in   Overcast
11:44 PM 62.1 °F 54.0 °F 75% 30.19 in 10.0 mi ENE 9.2 mph - N/A   Overcast
11:53 PM 62.1 °F 54.0 °F 75% 29.86 in 10.0 mi ENE 8.1 mph - N/A   Overcast